User: anonymous   Login
Location: Unspecified
(0.0000°N, 0.0000°E)
Time: 07:48:00
(UTC+00:00)
Language:

IRIDIUM 109 - Orbit

View from above orbital plane
View from above orbital plane
View from above satellite
View from above satellite

Ground track
Ground track

The orbit is defined by the following mean orbital elements,

1 41919U          26145.41437811 +.00000000 +00000-0 +14959-4 0 00006
2 41919  86.3952  98.0350 0002351  85.9284 274.2181 14.34217967    00
Epoch (UTC): 25 May 2026 09:56:42
Eccentricity: 0.0002351
inclination: 86.3952°
perigee height: 776 km
apogee height: 779 km
right ascension of ascending node: 98.0350°
argument of perigee: 85.9284°
revolutions per day: 14.34217967
mean anomaly at epoch: 274.2181°

The dashed part of the orbit path shows where the satellite is in the earth's shadow,  

DLR